COSMOS 2058

Satellite information

Favourite Embed

Satellite Type and Status

PAYLOADIN ORBIT

Key statistics

Satellite COSMOS 2058 at a glance.

Uptime

13102

Days in orbit

Revolutions

≈ 15.1

Per day

Orbit

LEO

Low Earth Orbit

Inclination

82.5

Latest

Satellite identification and parameters

Extended collection of information and parameters for COSMOS 2058.

Object identification

Identified? True

Debris? False

Object name: COSMOS 2058

International designator: 1990-010A

Object number (NORAD): 20465

Object ID (CCSDS): 20465

Country: COMMONWEALTH OF INDEPENDENT STATES (CIS)

Current information (Y/N): Y

RCS size: LARGE

Orbital parameters

Period: 95.334 minutes

Inclination: 82.4665 deg

SMA: 6912.867 km

Apoapsis: 540.513 km

Periapsis: 528.95 km

RAAN: 132.0997 deg

Eccentricy: 0.00083633

Argument of periapsis: 268.9977 deg

Mean anomaly: 91.0294 deg

Mean motion: 15.10481734 rev/day

Mean motion (dot): 0.00006345 rev/day2

B* drag term: 0.00038352867 1/REarth

Two-line elements (TLE)

Creation date: Dec. 14, 2025, 3:07 a.m.

Reference frame: TEME

Reference center: EARTH

Epoch: Dec. 13, 2025, 4:26 p.m. UTC

TLE line 0: 0 COSMOS 2058

TLE line 1: 1 20465U 90010A 25347.68539097 .00006345 00000-0 38353-3 0 9998

TLE line 2: 2 20465 82.4665 132.0997 0008363 268.9977 91.0294 15.10481734929255

Live tracking on map

Real-time ground track for satellite COSMOS 2058.

In-orbit conjunctions

A list of the most updated potential collisions computed for object COSMOS 2058.

Target Orbit TCA Probability of collision Miss distance Type
CZ-4B R/B SSO 2025-11-08 12:29:30 0.0005533732 435.0 (m) ROCKET BODY
FENGYUN 1C DEB SSO 2025-07-05 05:44:38 0.0001310689 448.0 (m) DEBRIS

Associated space launch

Tselina-R series ELINT satellite

COSMOS 2058 was lifted into orbit during the mission ‘Tsiklon-3 | Tselina-R 2’, on board a Tsiklon-3 space rocket.

The launch took place on Jan. 30, 1990, 11:20 a.m. from 32/1.

For more information about the launch, click the button.

Launch to space Tsiklon-3 | Tselina-R 2
Tsiklon-3 | Tselina-R 2

Agency: N/A

Status: Launch Successful

Launch date: Jan. 30, 1990, 11:20 a.m. UTC

Rocket: Tsiklon-3

Launch pad: 32/1

Location: Plesetsk Cosmodrome, Russian Federation

...

Latest news about this satellite

There are no fresh news available about this satellite. Check back as we update our databases every day.


Newsletter sign-up

Weekly statistics, charts and insights to help you stay on top of the space industry.